Location: ??????
(55.7522°N, 37.6156°E)
Time: 17:37:59
(UTC+00:00)

CZ-2C R/B - Pass Details

Date: 14 June 2025
Orbit: 783 x 866 km, 98.4° (Epoch: 12 July)

Event Time Altitude Azimuth Distance (km) Brightness Sun altitude
Exits shadow 20:51:38 - 123° (ESE) 3,152 5.3 -10.5°
Reaches altitude 10° 20:53:49 10° 114° (ESE) 2,377 4.7 -10.6°
Maximum altitude 20:58:16 29° 56° (NE) 1,460 4.3 -10.7°
Drops below altitude 10° 21:02:48 10° 358° (N) 2,433 6.7 -10.7°
Sets 21:05:26 0° 348° (NNW) 3,384 8.0 -10.8°
